Terminal Aerodrome Forecast
Issued by NWS

Home | Current Version | Previous Version | Graphics & Text | Print | Product List | Glossary On
Versions: 1 2 3 4 5 6 7 8 9 10 11 12 13 14 15 16 17 18 19 20 21 22 23 24 25 26 27 28 29 30 31 32 33
000
FTUS43 KABR 300400 AAB
TAFMBG
TAF AMD
KMBG 300402Z 3004/3024 02009KT P6SM SCT150
     FM300600 VRB03KT P6SM BKN020
     FM301300 14007KT P6SM FEW060
     FM302000 14015KT P6SM SCT150=

USA.gov is the U.S. government's official web portal to all federal, state and local government web resources and services.